Home   Weather   Zhengzhou   Past weeks
Flag for China

Past Weather in Zhengzhou, Henan, China — Yesterday and Last 2 Weeks

Now
91 °F

Passing clouds.


Feels Like: 90 °F
Forecast: 89 / 79 °F
Wind: 6 mph from Southeast

Location: Zhengzhou Airport

Current Time: Jun 18, 2019 at 7:01:59 pm

Latest Report: Jun 18, 2019 at 6:00 pm


Visibility: N/A

Pressure: 29.62 "Hg

Humidity: 32%

Dew Point: 57 °F

Location of ZhengzhouLocation

Past Weather in Zhengzhou — Graph

°F

Zhengzhou Temperature Yesterday

Maximum temperature yesterday: 88 °F (at 2:00 pm)
Minimum temperature yesterday: 73 °F (at 5:00 am)
Average temperature yesterday: 80 °F

High & Low Weather Summary for the Past Weeks

 TemperatureHumidityPressure
High97 °F (Jun 4, 2:00 pm)94% (Jun 5, 7:00 pm)29.83 "Hg (Jun 5, 7:00 pm)
Low66 °F (Jun 7, 5:00 am)13% (Jun 3, 6:00 pm)29.50 "Hg (Jun 3, 5:00 pm)
Average83 °F45%29.70 "Hg
* Reported Jun 3 5:00 pm — Jun 18 5:00 pm, Zhengzhou. Weather by CustomWeather, © 2019

Note: Actual official high and low records may vary slightly from our data, if they occured in-between our weather recording intervals... More about our weather records

Advertising

Zhengzhou Weather History for the Previous 24 Hours

Scroll right to see more
 ConditionsComfort  
Time TempWeatherWind HumidityBarometerVisibility
5:00 pm
Tue, Jun 18
93 °FPassing clouds.6 mph30%29.62 "HgN/A
4:00 pm93 °FSunny.6 mph30%29.65 "Hg10 mi
3:00 pm93 °FSunny.3 mph30%29.65 "Hg10 mi
2:00 pm93 °FPassing clouds.8 mph32%29.68 "HgN/A
1:00 pm91 °FPassing clouds.3 mph34%29.68 "HgN/A
12:00 pm90 °FPassing clouds.6 mph36%29.71 "HgN/A
11:00 am88 °FPassing clouds.3 mph38%29.74 "HgN/A
10:00 am88 °FClear.1 mph43%29.74 "Hg5 mi
9:00 am84 °FHaze.1 mph55%29.74 "Hg3 mi
8:00 am81 °FHaze.1 mph66%29.74 "Hg2 mi
7:00 am75 °FFog.3 mph78%29.71 "Hg2 mi
6:00 am73 °FFog.3 mph83%29.71 "Hg2 mi
5:00 am72 °FFog.1 mph88%29.71 "Hg2 mi
4:00 am72 °FFog.1 mph88%29.71 "Hg3 mi
3:00 am73 °FClear.1 mph83%29.71 "Hg4 mi
2:00 am77 °FClear.1 mph74%29.74 "Hg4 mi
1:00 am77 °FClear.1 mph74%29.74 "Hg5 mi
12:00 am77 °FClear.1 mph74%29.74 "Hg5 mi
11:00 pm
Mon, Jun 17
77 °FClear.3 mph69%29.77 "Hg5 mi
10:00 pm77 °FLight rain. Clear.3 mph69%29.74 "Hg5 mi
9:00 pm81 °FLight rain. Clear.3 mph62%29.74 "Hg5 mi
8:00 pm82 °FLight rain. Clear.1 mph51%29.71 "Hg5 mi
7:00 pm84 °FSunny.1 mph48%29.71 "Hg10 mi
Weather by CustomWeather, © 2019

See weather overview